Flag for Canada Weather past 2 weeks in Nanaimo, British Columbia, Canada

Now
61 °F

Cool.


Feels Like: 61 °F
Forecast: 52 / 61 °F
Wind: 13 mph from Northwest

Location: Entrance Island

Current Time: Sep 30, 2014 at 5:13:11 PM

Latest Report: Sep 30, 2014 at 4:00 PM


Visibility: N/A

Pressure: 30.07 "Hg

Humidity: 67%

Dew point: 49 °F

Location of NanaimoLocation

Historic Weather in Nanaimo — Graph

°F

Nanaimo temperature yesterday

Maximum temperature yesterday: 58 °F (at 6:00 PM)
Minimum temperature yesterday: 55 °F (at 8:00 AM)
Average temperature yesterday: 57 °F

Past Weeks' High & Low Weather Summary

 TemperatureHumidityPressure
High68 °F (Sep 21, 5:00 PM)100% (Sep 27, 4:00 AM)30.18 "Hg (Sep 27, 4:00 AM)
Low49 °F (Sep 27, 4:00 AM)48% (Sep 15, 10:00 PM)29.59 "Hg (Sep 24, 1:00 AM)
Average58 °F86%29.89 "Hg
* Reported Sep 15 3:00 PM — Sep 30 3:00 PM, Nanaimo, Weather by CustomWeather, © 2014

Note: Actual official high and low records may vary slightly from our data, if they occured in-between our weather recording intervals... More about our weather records

Advertising

Nanaimo weather history for previous 24 hours

 ConditionsComfort  
Time TempWeatherWind HumidityBarometerVisibility
3:00 PM
Sep 30
60 °FCool.12 mph68%30.07 "HgN/A
2:00 PM60 °FCool.15 mph69%30.07 "HgN/A
1:00 PM59 °FCool.17 mph76%30.06 "HgN/A
12:00 PM58 °FCool.16 mph78%30.05 "HgN/A
11:00 AM58 °FCool.16 mph79%30.04 "HgN/A
10:00 AM57 °FCool.16 mph81%30.03 "HgN/A
8:00 AM57 °FCool.10 mph78%30.00 "HgN/A
7:00 AM56 °FCool.10 mph80%30.00 "HgN/A
6:00 AM57 °FCool.10 mph77%29.98 "HgN/A
5:00 AM54 °FCool.7 mph78%29.97 "HgN/A
4:00 AM56 °FCool.7 mph76%29.96 "HgN/A
3:00 AM56 °FCool.5 mph80%29.96 "HgN/A
2:00 AM56 °FCool.7 mph76%29.94 "HgN/A
1:00 AM56 °FCool.6 mph80%29.93 "HgN/A
12:00 AM57 °FCool.8 mph83%29.92 "HgN/A
11:00 PM
Sep 29
57 °FCool.8 mph88%29.91 "HgN/A
10:00 PM57 °FCool.6 mph90%29.90 "HgN/A
9:00 PM58 °FCool.10 mph88%29.88 "HgN/A
8:00 PM58 °FCool.5 mph88%29.86 "HgN/A
7:00 PM58 °FCool.5 mph88%29.85 "HgN/A
6:00 PM58 °FCool.5 mph86%29.84 "HgN/A
5:00 PM58 °FCool.9 mph87%29.83 "HgN/A
Weather by CustomWeather, © 2014

See weather overviewHow to use our weather pages